Tracking 23893 objects as of 29-Nov-2021
HD Live streaming from Space Station
objects crossing your sky now

THORAD AGENA D DEB

Track THORAD AGENA D DEB now!
10-day predictions


NORAD ID: 4895
Int'l Code: 1969-082HE
Perigee: 747.3 km
Apogee: 808.1 km
Inclination: 70.2 °
Period: 100.3 minutes
Semi major axis: 7148 km
RCS: 0.0073 m2 (small)
Launch date: September 30, 1969
Source: United States (US)
Launch site: AIR FORCE WESTERN TEST RANGE (AFWTR)

Note: This is SATELLITE DEBRIS
aabbcc
Your satellite tracking list
Your tracking list is empty




NASA's NSSDC Master Catalog

Two Line Element Set (TLE):
1  4895U 69082HE  21333.17700605  .00000269  00000-0  11023-3 0  9996
2  4895  70.1735 261.2852 0042488 147.8711 212.5020 14.36363712704663
Source of the keplerian elements: AFSPC